QPF
0.00 0.00 0.00 0.00 0.00 0.00 0.00 0.00 0.00 0.00 0.00 0.00 0.00 0.00 0.00 0.00 0.00 0.00 0.00 0.00 0.00 0.00 0.00 0.00 0.00 0.00 0.00 0.00 0.00 0.00 0.00 0.00 0.00 0.00 0.00 0.00 0.00 0.00 0.00 0.00 0.00 0.00 0.00 0.00 0.00
0.00 0.00 0.00 0.00 0.00 0.00 0.00 0.00 0.00 0.00 0.00 0.00 0.00 0.00 0.00 0.00 0.00 0.00 0.00 0.00 0.00 0.00 0.00 0.00 0.00 0.00 0.00 0.00 0.00 0.00 0.00 0.00 0.00 0.00 0.00 0.00 0.00 0.00 0.00 0.00 0.00 0.00 0.00 0.00 0.00
0.00 0.00 0.00 0.00 0.00 0.00 0.00 0.00 0.00 0.00 0.00 0.00 0.00 0.00 0.00 0.00 0.00 0.00 0.00 0.00 0.00 0.00 0.00 0.00 0.00 0.00 0.00 0.00 0.00 0.00 0.00 0.00 0.00 0.00 0.00 0.00 0.00 0.00 0.00 0.00 0.00 0.00 0.00 0.00 0.00
0.00 0.00 0.00 0.00 0.00 0.00 0.00 0.00 0.00 0.00 0.00 0.00 0.00 0.00 0.00 0.00 0.00 0.00 0.00 0.00 0.00 0.00 0.00 0.00 0.00 0.00 0.00 0.00 0.00 0.00 0.00 0.00 0.00 0.00 0.00 0.00 0.00 0.00 0.00 0.00 0.00 0.00 0.00 0.00 0.00
0.00 0.00 0.00 0.00 0.00 0.00 0.00 0.00 0.00 0.00 0.00 0.00 0.00 0.00 0.00 0.00 0.00 0.00 0.00 0.00 0.00 0.00 0.00 0.00 0.00 0.00 0.00 0.00 0.00 0.00 0.00 0.00 0.00 0.00 0.00 0.00 0.00 0.00 0.00 0.00 0.00 0.00 0.00 0.00 0.00
0.00 0.00 0.00 0.00 0.00 0.00 0.00 0.00 0.00 0.00 0.00 0.00 0.00 0.00 0.00 0.00 0.00 0.00 0.00 0.00 0.00 0.00 0.00 0.00 0.00 0.00 0.00 0.00 0.00 0.00 0.00 0.00 0.00 0.00 0.00 0.00 0.00 0.00 0.00 0.00 0.00 0.00 0.00 0.00 0.00
0.00 0.00 0.00 0.00 0.00 0.00 0.00 0.00 0.00 0.00 0.00 0.00 0.00 0.00 0.00 0.00 0.00 0.00 0.00 0.00 0.00 0.00 0.00 0.00 0.00 0.00 0.00 0.00 0.00 0.00 0.00 0.00 0.00 0.00 0.00 0.00 0.00 0.00 0.00 0.00 0.00 0.00 0.00 0.00 0.00
0.00 0.00 0.00 0.00 0.00 0.00 0.00 0.00 0.00 0.00 0.00 0.00 0.00 0.00 0.00 0.00 0.00 0.00 0.00 0.00 0.00 0.00 0.00 0.00 0.00 0.00 0.00 0.00 0.00 0.00 0.00 0.00 0.00 0.00 0.00 0.00 0.00 0.00 0.00 0.00 0.00 0.00 0.00 0.00 0.00
0.00 0.00 0.00 0.00 0.00 0.00 0.00 0.00 0.00 0.00 0.00 0.00 0.00 0.00 0.00 0.00 0.00 0.00 0.00 0.00 0.00 0.00 0.00 0.00 0.00 0.00 0.00 0.00 0.00 0.00 0.00 0.00 0.00 0.00 0.00 0.00 0.00 0.00 0.00 0.00 0.00 0.00 0.00 0.00 0.00
0.00 0.00 0.00 0.00 0.00 0.00 0.00 0.00 0.00 0.00 0.00 0.00 0.00 0.00 0.00 0.00 0.00 0.00 0.00 0.00 0.00 0.00 0.00 0.00 0.00 0.00 0.00 0.00 0.00 0.00 0.00 0.00 0.00 0.00 0.00 0.00 0.00 0.00 0.00 0.00 0.00 0.00 0.00 0.00 0.00
0.00 0.00 0.00 0.00 0.00 0.00 0.00 0.00 0.00 0.00 0.00 0.00 0.00 0.00 0.00 0.00 0.00 0.00 0.00 0.00 0.00 0.00 0.00 0.00 0.00 0.00 0.00 0.00 0.00 0.00 0.00 0.00 0.00 0.00 0.00 0.00 0.00 0.00 0.00 0.00 0.00 0.00 0.00 0.00 0.00
0.00 0.00 0.00 0.00 0.00 0.00 0.00 0.00 0.00 0.00 0.00 0.00 0.00 0.00 0.00 0.00 0.00 0.00 0.00 0.00 0.00 0.00 0.00 0.00 0.00 0.00 0.00 0.00 0.00 0.00 0.00 0.00 0.00 0.00 0.00 0.00 0.00 0.00 0.00 0.00 0.00 0.00 0.00 0.00 0.00
0.00 0.00 0.00 0.00 0.00 0.00 0.00 0.00 0.00 0.00 0.00 0.00 0.00 0.00 0.00 0.00 0.00 0.00 0.00 0.00 0.00 0.00 0.00 0.00 0.00 0.00 0.00 0.00 0.00 0.00 0.00 0.00 0.00 0.00 0.00 0.00 0.00 0.00 0.00 0.00 0.00 0.00 0.00 0.00 0.00
0.00 0.00 0.00 0.00 0.00 0.00 0.00 0.00 0.00 0.00 0.00 0.00 0.00 0.00 0.00 0.00 0.00 0.00 0.00 0.00 0.00 0.00 0.00 0.00 0.00 0.00 0.00 0.00 0.00 0.00 0.00 0.00 0.00 0.00 0.00 0.00 0.00 0.00 0.00 0.00 0.00 0.00 0.00 0.00 0.00
0.00 0.00 0.00 0.00 0.00 0.00 0.00 0.00 0.00 0.00 0.00 0.00 0.00 0.00 0.00 0.00 0.00 0.00 0.00 0.00 0.00 0.00 0.00 0.00 0.00 0.00 0.00 0.00 0.00 0.00 0.00 0.00 0.00 0.00 0.00 0.00 0.00 0.00 0.00 0.00 0.00 0.00 0.00 0.00 0.00
0.00 0.00 0.00 0.00 0.00 0.00 0.00 0.00 0.00 0.00 0.00 0.00 0.00 0.00 0.00 0.00 0.00 0.00 0.00 0.00 0.00 0.00 0.00 0.00 0.00 0.00 0.00 0.00 0.00 0.00 0.00 0.00 0.00 0.00 0.00 0.00 0.00 0.00 0.00 0.00 0.00 0.00 0.00 0.00 0.00
0.00 0.00 0.00 0.00 0.00 0.00 0.00 0.00 0.00 0.00 0.00 0.00 0.00 0.00 0.00 0.00 0.00 0.00 0.00 0.00 0.00 0.00 0.00 0.00 0.00 0.01 0.00 0.00 0.00 0.00 0.00 0.00 0.00 0.00 0.00 0.00 0.00 0.00 0.00 0.00 0.00 0.00 0.00 0.00 0.00
0.00 0.00 0.00 0.00 0.00 0.00 0.00 0.00 0.00 0.00 0.00 0.00 0.00 0.00 0.00 0.00 0.00 0.00 0.00 0.00 0.00 0.00 0.00 0.00 0.00 0.01 0.01 0.01 0.01 0.01 0.00 0.00 0.00 0.00 0.00 0.00 0.00 0.00 0.00 0.00 0.00 0.00 0.00 0.00 0.00
0.00 0.00 0.00 0.00 0.00 0.00 0.00 0.00 0.00 0.00 0.00 0.00 0.00 0.00 0.00 0.00 0.00 0.00 0.00 0.00 0.00 0.00 0.00 0.00 0.00 0.01 0.00 0.00 0.01 0.00 0.00 0.00 0.00 0.00 0.00 0.00 0.00 0.00 0.00 0.00 0.00 0.00 0.00 0.00 0.00
0.00 0.00 0.00 0.00 0.00 0.00 0.00 0.00 0.00 0.00 0.00 0.00 0.00 0.00 0.00 0.00 0.00 0.00 0.00 0.00 0.00 0.00 0.00 0.00 0.00 0.00 0.00 0.00 0.00 0.01 0.01 0.01 0.02 0.02 0.01 0.00 0.00 0.00 0.00 0.00 0.00 0.00 0.00 0.00 0.00
0.00 0.00 0.00 0.00 0.00 0.00 0.00 0.00 0.00 0.00 0.00 0.00 0.00 0.00 0.00 0.00 0.00 0.00 0.00 0.00 0.00 0.00 0.00 0.00 0.00 0.00 0.00 0.00 0.00 0.01 0.00 0.01 0.02 0.02 0.01 0.00 0.00 0.00 0.00 0.00 0.00 0.00 0.00 0.00 0.00
0.00 0.00 0.00 0.00 0.00 0.00 0.00 0.00 0.00 0.00 0.00 0.00 0.00 0.00 0.00 0.00 0.00 0.00 0.00 0.00 0.00 0.00 0.00 0.00 0.01 0.01 0.00 0.01 0.02 0.02 0.01 0.01 0.01 0.01 0.02 0.02 0.00 0.00 0.00 0.00 0.00 0.00 0.00 0.00 0.00
0.00 0.00 0.00 0.00 0.00 0.00 0.00 0.00 0.00 0.00 0.00 0.00 0.00 0.00 0.00 0.00 0.00 0.00 0.00 0.00 0.00 0.00 0.00 0.00 0.01 0.00 0.00 0.00 0.01 0.00 0.01 0.02 0.02 0.03 0.02 0.02 0.00 0.00 0.00 0.00 0.00 0.00 0.00 0.00 0.00
0.00 0.00 0.00 0.00 0.00 0.00 0.00 0.00 0.00 0.00 0.00 0.00 0.00 0.00 0.00 0.00 0.00 0.00 0.00 0.00 0.00 0.00 0.00 0.00 0.00 0.00 0.00 0.00 0.00 0.00 0.00 0.00 0.00 0.01 0.01 0.00 0.00 0.00 0.00 0.00 0.00 0.00 0.00 0.00 0.00
0.00 0.00 0.00 0.00 0.00 0.00 0.00 0.00 0.00 0.00 0.00 0.00 0.00 0.00 0.00 0.00 0.00 0.00 0.00 0.00 0.00 0.00 0.00 0.00 0.00 0.00 0.00 0.00 0.00 0.00 0.00 0.00 0.00 0.00 0.01 0.00 0.00 0.00 0.01 0.01 0.00 0.00 0.00 0.00 0.00
0.00 0.00 0.00 0.00 0.00 0.00 0.00 0.00 0.00 0.00 0.00 0.00 0.00 0.00 0.00 0.00 0.00 0.00 0.00 0.00 0.00 0.00 0.00 0.00 0.00 0.00 0.00 0.00 0.00 0.00 0.00 0.00 0.00 0.00 0.00 0.00 0.00 0.00 0.00 0.01 0.01 0.00 0.00 0.00 0.00
0.00 0.00 0.00 0.00 0.00 0.00 0.00 0.00 0.00 0.00 0.00 0.00 0.00 0.00 0.00 0.00 0.00 0.00 0.00 0.00 0.00 0.00 0.00 0.00 0.00 0.01 0.00 0.00 0.00 0.00 0.02 0.03 0.03 0.02 0.00 0.00 0.00 0.00 0.00 0.00 0.00 0.00 0.00 0.00 0.00
MSLP
1019.13 1018.77 1018.43 1018.16 1017.85 1017.43 1017.12 1016.82 1016.57 1016.26 1016.01 1015.79 1015.63 1015.43 1015.17 1014.87 1014.41 1013.60 1012.67 1010.29 1009.97 1009.59 1009.90 1009.87 1009.53 1009.14 1009.23 1009.51 1009.25 1009.15 1009.29 1008.44 1007.95 1007.45 1006.05 1004.55 1004.05 1003.00 1002.47 1002.62 1002.72 1002.73 1002.89 1003.79 1003.83
1018.92 1018.53 1018.18 1017.87 1017.61 1017.34 1016.98 1016.66 1016.34 1016.02 1015.77 1015.59 1015.41 1015.27 1015.09 1014.85 1014.38 1012.64 1010.00 1009.42 1009.44 1009.57 1009.84 1009.60 1009.30 1009.01 1009.24 1008.97 1008.99 1008.82 1008.45 1007.93 1007.32 1006.55 1005.63 1004.29 1003.59 1003.66 1003.41 1002.73 1002.93 1003.02 1002.75 1003.13 1003.61
1018.88 1018.39 1017.90 1017.55 1017.24 1017.07 1016.78 1016.40 1016.06 1015.75 1015.48 1015.29 1015.16 1015.04 1014.91 1014.76 1013.51 1009.52 1007.65 1009.21 1009.28 1009.47 1009.37 1009.23 1008.97 1008.72 1009.02 1008.73 1008.55 1008.28 1007.46 1007.65 1006.76 1005.82 1005.06 1004.06 1003.04 1002.86 1003.26 1003.05 1002.99 1003.07 1003.08 1003.37 1004.08
1018.66 1018.20 1017.72 1017.32 1017.01 1016.75 1016.47 1016.16 1015.84 1015.48 1015.22 1015.08 1014.95 1014.81 1014.58 1014.45 1011.99 1008.59 1008.43 1008.89 1009.16 1009.08 1009.29 1008.95 1008.71 1008.69 1008.64 1008.39 1007.79 1007.44 1006.93 1006.54 1005.76 1005.07 1004.42 1003.75 1003.15 1002.45 1002.59 1002.50 1002.60 1002.97 1003.28 1003.71 1004.31
1018.39 1017.97 1017.48 1016.99 1016.65 1016.30 1016.00 1015.76 1015.54 1015.33 1015.12 1014.97 1014.81 1014.64 1014.08 1013.31 1010.28 1008.52 1008.73 1008.96 1008.95 1009.14 1008.85 1008.51 1008.14 1007.98 1008.00 1007.55 1007.22 1006.73 1006.36 1005.58 1004.85 1004.30 1003.84 1003.44 1002.79 1002.64 1002.16 1002.56 1002.56 1002.54 1003.18 1003.71 1004.16
1018.22 1017.73 1017.25 1016.77 1016.32 1015.97 1015.66 1015.43 1015.23 1015.04 1014.89 1014.82 1014.70 1014.57 1013.99 1011.69 1007.68 1007.85 1008.35 1008.78 1008.56 1008.59 1007.95 1007.61 1007.24 1006.97 1007.05 1007.06 1007.11 1006.43 1005.83 1005.09 1004.43 1003.92 1003.54 1003.30 1002.88 1002.76 1001.92 1002.28 1002.73 1002.79 1002.95 1003.11 1003.82
1018.08 1017.48 1016.96 1016.49 1016.04 1015.65 1015.35 1015.10 1014.87 1014.68 1014.64 1014.65 1014.64 1014.29 1012.86 1009.72 1007.60 1007.82 1007.77 1007.95 1007.72 1007.65 1007.41 1006.87 1006.89 1007.11 1007.33 1007.43 1006.64 1006.48 1006.04 1005.18 1004.55 1004.03 1003.58 1003.25 1003.23 1002.60 1002.44 1002.46 1002.48 1002.80 1003.03 1003.17 1003.49
1017.89 1017.30 1016.71 1016.18 1015.71 1015.29 1014.99 1014.69 1014.48 1014.30 1014.30 1014.36 1014.44 1013.99 1011.49 1007.46 1007.15 1007.80 1007.37 1007.30 1007.17 1006.92 1006.96 1006.89 1006.92 1007.39 1007.80 1007.69 1007.18 1007.18 1006.56 1005.98 1004.90 1004.31 1003.71 1003.83 1002.92 1002.56 1002.38 1002.77 1002.85 1002.84 1002.88 1003.07 1003.46
1017.70 1017.07 1016.43 1015.90 1015.46 1014.96 1014.64 1014.27 1013.95 1013.51 1013.75 1014.10 1014.37 1013.36 1009.72 1006.73 1006.77 1006.42 1006.50 1006.70 1006.60 1006.56 1006.66 1006.79 1007.12 1007.81 1008.16 1008.32 1008.14 1007.47 1007.19 1006.37 1005.08 1004.16 1003.80 1003.65 1002.66 1002.55 1002.30 1002.79 1002.84 1002.81 1002.83 1002.90 1003.17
1017.47 1016.85 1016.25 1015.64 1015.18 1014.76 1014.23 1013.73 1013.43 1013.53 1013.53 1013.70 1012.85 1012.48 1008.80 1006.34 1005.75 1006.03 1006.16 1006.35 1006.47 1006.51 1006.83 1006.95 1007.39 1007.86 1008.25 1008.58 1008.27 1007.64 1006.78 1005.77 1004.77 1003.62 1003.19 1002.99 1002.26 1002.25 1002.35 1002.72 1002.81 1002.92 1002.74 1003.20 1003.68
1017.41 1016.65 1015.96 1015.42 1014.89 1014.52 1013.97 1013.12 1013.54 1013.03 1012.18 1010.91 1009.95 1008.51 1006.83 1005.50 1005.29 1005.85 1005.89 1006.21 1006.55 1007.04 1007.42 1007.25 1007.68 1007.72 1007.42 1007.07 1006.77 1006.55 1006.08 1005.29 1004.20 1003.40 1003.08 1002.65 1001.51 1001.73 1002.06 1002.28 1002.34 1002.54 1002.96 1003.15 1003.47
1017.31 1016.55 1015.75 1015.06 1014.64 1014.28 1014.40 1012.97 1010.47 1009.86 1009.02 1008.47 1007.85 1007.16 1006.05 1005.48 1005.35 1005.41 1005.77 1006.45 1006.79 1007.32 1007.30 1007.48 1007.18 1006.53 1006.06 1005.86 1005.68 1005.56 1005.39 1004.98 1003.99 1003.47 1003.35 1003.08 1002.37 1001.69 1001.76 1002.02 1002.34 1002.76 1002.86 1003.02 1003.41
1017.07 1016.37 1015.62 1014.75 1014.02 1013.89 1012.94 1011.22 1009.14 1008.80 1008.92 1006.44 1005.53 1004.96 1004.89 1005.21 1005.16 1005.09 1005.44 1005.95 1006.61 1007.02 1007.12 1007.00 1006.35 1005.55 1005.21 1004.93 1004.91 1005.04 1005.15 1004.86 1004.67 1004.21 1003.69 1003.74 1003.13 1002.50 1002.10 1002.02 1002.02 1001.98 1002.54 1002.77 1003.06
1016.85 1016.12 1015.54 1014.63 1013.82 1012.43 1011.21 1009.30 1008.78 1008.87 1008.77 1005.61 1004.18 1003.94 1004.10 1004.66 1004.68 1004.47 1004.67 1005.40 1005.97 1006.44 1006.63 1006.31 1005.62 1005.15 1004.68 1004.48 1004.67 1004.78 1004.95 1005.08 1005.48 1005.19 1005.26 1004.53 1004.36 1003.30 1002.68 1002.19 1002.12 1001.72 1001.85 1002.38 1002.67
1016.66 1015.88 1015.17 1015.39 1014.15 1012.37 1009.77 1008.87 1008.83 1009.11 1007.93 1004.45 1003.70 1003.44 1003.57 1004.39 1003.61 1003.80 1003.92 1004.46 1005.04 1005.58 1006.27 1005.71 1005.38 1005.12 1004.76 1004.38 1004.34 1004.82 1005.09 1005.66 1006.15 1006.51 1005.98 1005.31 1005.33 1003.51 1002.88 1002.30 1001.58 1001.05 1000.90 1001.78 1002.20
1016.27 1015.64 1015.11 1013.23 1013.80 1011.41 1010.13 1009.30 1009.18 1009.39 1006.43 1003.84 1003.46 1003.40 1003.69 1003.58 1003.56 1003.26 1003.63 1003.89 1004.44 1005.39 1005.76 1005.72 1005.38 1005.31 1005.36 1004.99 1005.14 1004.87 1005.54 1006.37 1007.13 1007.69 1007.38 1006.13 1006.05 1003.81 1003.27 1002.26 1001.35 1001.05 1000.52 1001.19 1002.00
1015.40 1014.62 1014.95 1013.74 1012.08 1010.44 1010.13 1009.80 1009.86 1008.17 1004.48 1004.32 1003.78 1003.51 1003.67 1003.67 1003.37 1003.15 1003.44 1004.10 1004.84 1005.67 1005.75 1006.09 1006.55 1005.99 1006.47 1006.06 1006.42 1006.84 1007.33 1008.53 1009.02 1008.94 1007.77 1007.06 1006.46 1003.64 1003.04 1001.98 1000.48 1000.34 1000.42 1000.90 1001.79
1014.48 1013.13 1012.75 1012.23 1010.97 1010.49 1010.58 1010.63 1009.72 1006.88 1005.24 1004.69 1004.55 1004.57 1004.64 1004.22 1003.95 1003.45 1003.00 1003.78 1004.32 1005.94 1006.67 1007.78 1008.15 1006.83 1007.53 1007.54 1008.29 1009.24 1010.27 1010.42 1010.02 1009.98 1008.84 1007.88 1006.13 1004.08 1002.69 1001.87 999.30 998.99 1000.02 1000.91 1001.88
1014.01 1012.65 1012.06 1010.74 1010.82 1010.84 1011.19 1010.63 1008.59 1006.75 1005.69 1005.32 1005.32 1005.15 1005.02 1004.88 1005.09 1004.68 1004.61 1004.64 1005.11 1006.16 1007.77 1007.88 1008.26 1008.23 1007.83 1007.49 1007.95 1008.56 1010.37 1009.61 1010.72 1010.74 1010.37 1008.24 1005.90 1004.00 1003.16 1002.38 1000.98 1000.62 1001.13 1001.86 1002.36
1014.69 1012.87 1010.84 1009.57 1009.98 1010.59 1011.07 1010.11 1008.53 1006.81 1006.21 1006.07 1006.37 1006.28 1006.37 1006.52 1006.46 1006.14 1005.82 1006.18 1006.54 1007.03 1007.73 1008.99 1008.96 1007.98 1007.04 1007.16 1007.24 1008.18 1008.74 1010.51 1011.54 1011.30 1010.19 1008.00 1006.16 1004.78 1003.99 1003.74 1002.84 1002.65 1002.10 1002.33 1002.45
1014.63 1012.56 1009.66 1009.12 1009.76 1010.74 1010.76 1009.44 1007.73 1006.50 1006.15 1006.41 1006.74 1007.04 1007.37 1007.29 1007.17 1006.99 1006.80 1006.74 1007.10 1007.68 1008.51 1009.27 1010.06 1009.36 1008.17 1007.61 1007.88 1008.52 1009.14 1010.40 1011.58 1010.60 1009.83 1008.81 1006.49 1004.89 1004.51 1004.22 1003.66 1003.69 1003.77 1002.99 1002.83
1015.56 1012.98 1009.47 1009.47 1010.42 1010.11 1009.91 1008.92 1007.92 1007.03 1006.47 1006.51 1006.86 1007.42 1007.83 1008.05 1007.84 1007.67 1007.39 1007.09 1007.25 1007.87 1008.70 1010.26 1010.89 1010.19 1009.19 1007.94 1008.52 1009.17 1010.15 1011.65 1012.10 1011.04 1009.66 1009.02 1006.51 1004.84 1004.24 1004.11 1003.93 1004.79 1003.50 1003.72 1004.35
1016.45 1013.00 1009.31 1009.52 1010.38 1010.34 1009.50 1009.05 1008.71 1007.53 1007.16 1007.17 1007.68 1008.14 1008.51 1008.77 1008.75 1007.92 1007.58 1007.13 1007.44 1007.93 1008.87 1010.15 1010.42 1010.50 1009.30 1008.81 1009.15 1009.39 1009.74 1010.32 1010.94 1011.18 1010.36 1009.45 1007.04 1005.23 1004.69 1004.86 1004.45 1004.49 1004.27 1004.43 1004.80
1017.09 1013.67 1011.16 1010.50 1010.90 1011.34 1010.70 1009.82 1008.93 1008.23 1007.66 1007.62 1008.06 1008.55 1008.88 1008.81 1008.76 1008.52 1007.88 1007.20 1007.66 1008.09 1008.98 1009.60 1010.30 1010.65 1010.42 1009.61 1009.17 1008.82 1008.71 1008.94 1010.15 1010.14 1009.14 1008.15 1006.90 1005.83 1004.91 1004.36 1004.39 1004.34 1004.05 1005.36 1005.24
1016.83 1014.71 1013.96 1012.87 1012.27 1012.34 1011.44 1010.36 1009.44 1008.57 1008.38 1008.55 1008.92 1009.32 1009.43 1009.45 1009.24 1008.96 1008.54 1008.15 1008.08 1008.54 1009.01 1009.72 1010.34 1010.49 1010.16 1009.40 1008.57 1008.01 1007.75 1008.02 1008.30 1008.35 1008.07 1007.24 1006.38 1005.70 1006.28 1006.05 1005.70 1005.09 1005.12 1005.08 1004.97
1017.45 1016.74 1015.95 1014.97 1013.78 1013.10 1011.94 1010.84 1010.04 1009.21 1009.43 1009.43 1009.57 1009.52 1009.68 1009.88 1009.67 1009.47 1009.44 1009.39 1009.23 1009.17 1009.54 1009.85 1010.50 1010.59 1010.06 1009.28 1008.66 1008.35 1007.48 1006.90 1007.38 1007.47 1007.35 1007.18 1006.40 1005.82 1006.01 1006.36 1005.91 1005.52 1005.19 1005.17 1004.93
1018.41 1017.72 1017.10 1015.82 1014.79 1014.01 1012.90 1012.06 1010.94 1009.99 1009.79 1009.73 1009.79 1009.93 1009.82 1009.79 1009.57 1009.56 1009.53 1009.68 1009.70 1009.83 1010.04 1010.29 1010.68 1010.96 1010.23 1009.60 1008.97 1008.26 1008.07 1007.64 1007.85 1008.00 1008.27 1007.36 1007.33 1006.89 1006.21 1006.21 1005.88 1005.62 1005.30 1004.99 1004.75
Thickness
5592 5586 5586 5587 5587 5589 5591 5596 5602 5610 5616 5622 5627 5632 5638 5644 5652 5663 5670 5695 5700 5707 5707 5707 5711 5714 5713 5707 5712 5713 5685 5690 5703 5708 5728 5759 5753 5778 5791 5783 5790 5799 5799 5795 5800
5597 5594 5593 5592 5593 5593 5595 5599 5605 5613 5619 5623 5627 5631 5636 5641 5647 5661 5689 5695 5697 5700 5698 5695 5695 5703 5694 5700 5699 5692 5685 5696 5718 5724 5726 5747 5753 5756 5758 5766 5770 5780 5793 5807 5792
5601 5599 5599 5600 5600 5600 5601 5604 5609 5615 5621 5625 5628 5632 5635 5639 5651 5682 5703 5692 5694 5694 5696 5697 5698 5698 5687 5693 5694 5695 5692 5702 5715 5727 5733 5739 5750 5762 5747 5736 5757 5760 5775 5784 5779
5607 5604 5604 5605 5606 5607 5608 5610 5613 5618 5622 5626 5629 5632 5636 5639 5655 5689 5693 5691 5690 5692 5689 5690 5690 5682 5680 5677 5696 5684 5704 5709 5717 5726 5729 5730 5746 5748 5752 5747 5766 5765 5767 5769 5765
5613 5611 5610 5610 5610 5612 5615 5617 5619 5621 5624 5626 5629 5632 5639 5643 5661 5686 5687 5686 5688 5686 5684 5683 5682 5681 5669 5682 5688 5688 5698 5711 5721 5724 5728 5734 5735 5737 5746 5758 5755 5762 5758 5759 5755
5617 5616 5616 5615 5615 5616 5618 5621 5624 5625 5626 5627 5629 5631 5635 5643 5690 5690 5687 5683 5685 5682 5683 5686 5685 5689 5685 5683 5679 5693 5695 5703 5713 5715 5720 5716 5724 5730 5751 5753 5750 5744 5746 5754 5751
5619 5620 5620 5622 5621 5621 5621 5623 5626 5628 5628 5628 5628 5632 5640 5655 5689 5686 5688 5683 5687 5685 5680 5689 5688 5679 5675 5667 5687 5685 5673 5689 5701 5708 5708 5716 5701 5718 5741 5741 5737 5738 5738 5744 5748
5620 5623 5624 5625 5627 5627 5626 5627 5629 5630 5629 5629 5628 5631 5639 5685 5688 5683 5685 5683 5687 5688 5684 5685 5685 5672 5665 5670 5671 5660 5666 5653 5688 5697 5705 5700 5680 5719 5733 5728 5729 5734 5736 5740 5734
5621 5624 5627 5628 5629 5631 5631 5631 5633 5635 5632 5630 5626 5631 5650 5688 5679 5687 5688 5678 5682 5683 5682 5682 5674 5657 5653 5639 5633 5646 5632 5644 5669 5694 5693 5685 5685 5708 5722 5718 5718 5723 5726 5730 5728
5622 5624 5627 5630 5631 5632 5635 5637 5636 5635 5634 5630 5636 5630 5659 5673 5684 5685 5686 5681 5672 5671 5664 5661 5649 5635 5631 5622 5606 5624 5631 5648 5657 5686 5689 5682 5684 5702 5707 5706 5708 5714 5720 5719 5717
5620 5624 5627 5630 5632 5633 5635 5641 5635 5633 5639 5645 5652 5658 5670 5686 5689 5677 5681 5672 5666 5654 5633 5643 5625 5617 5630 5640 5645 5643 5641 5644 5664 5679 5676 5672 5687 5690 5696 5698 5698 5701 5703 5705 5708
5618 5621 5626 5630 5631 5632 5629 5637 5653 5655 5647 5664 5664 5666 5677 5680 5665 5671 5676 5651 5645 5628 5636 5627 5618 5639 5649 5649 5645 5642 5636 5633 5652 5666 5668 5662 5665 5686 5691 5688 5690 5687 5693 5697 5699
5616 5620 5623 5628 5632 5632 5638 5646 5664 5664 5639 5666 5677 5677 5674 5673 5661 5661 5667 5654 5638 5629 5628 5617 5631 5649 5646 5643 5638 5634 5626 5629 5629 5649 5660 5650 5645 5661 5676 5683 5690 5693 5690 5692 5691
5615 5618 5620 5625 5630 5640 5643 5660 5661 5658 5619 5658 5671 5674 5676 5670 5656 5674 5670 5655 5640 5626 5626 5625 5640 5639 5638 5635 5635 5615 5638 5635 5626 5623 5602 5644 5597 5639 5655 5659 5670 5684 5689 5683 5685
5613 5616 5619 5614 5622 5631 5652 5659 5658 5645 5597 5668 5671 5687 5677 5658 5665 5658 5674 5657 5633 5630 5624 5622 5626 5624 5623 5632 5638 5619 5633 5621 5617 5606 5604 5619 5595 5629 5649 5650 5665 5678 5689 5680 5681
5612 5614 5615 5627 5620 5636 5645 5651 5643 5610 5603 5657 5667 5659 5655 5660 5659 5663 5652 5653 5648 5628 5627 5620 5634 5627 5621 5629 5628 5634 5621 5610 5604 5594 5573 5610 5597 5617 5632 5645 5661 5666 5675 5677 5674
5615 5618 5612 5618 5625 5638 5640 5632 5604 5599 5668 5648 5651 5658 5650 5646 5650 5653 5643 5627 5612 5593 5598 5607 5599 5613 5608 5601 5607 5598 5590 5556 5553 5559 5570 5605 5588 5618 5634 5646 5659 5666 5665 5668 5668
5618 5626 5626 5626 5631 5633 5627 5607 5594 5633 5645 5656 5646 5644 5633 5643 5642 5645 5643 5628 5638 5606 5578 5558 5558 5598 5587 5583 5571 5561 5559 5546 5548 5546 5570 5586 5575 5606 5634 5639 5666 5673 5666 5659 5653
5618 5625 5626 5633 5629 5625 5607 5588 5607 5630 5642 5636 5635 5624 5627 5634 5624 5624 5620 5616 5617 5603 5571 5567 5562 5578 5580 5584 5582 5574 5547 5570 5546 5555 5542 5569 5594 5616 5624 5626 5645 5651 5648 5642 5642
5608 5619 5626 5637 5630 5617 5596 5591 5608 5631 5632 5626 5604 5616 5601 5605 5603 5603 5605 5598 5587 5591 5582 5562 5546 5582 5590 5585 5584 5572 5575 5546 5532 5542 5538 5573 5587 5582 5601 5604 5619 5624 5634 5634 5638
5603 5612 5631 5637 5626 5602 5584 5600 5617 5633 5627 5615 5604 5599 5598 5595 5595 5590 5589 5589 5579 5571 5565 5551 5539 5547 5566 5567 5563 5560 5556 5548 5539 5547 5541 5544 5570 5593 5591 5594 5603 5605 5608 5619 5625
5586 5595 5629 5626 5595 5598 5593 5610 5612 5618 5621 5613 5609 5601 5591 5587 5583 5578 5573 5575 5573 5566 5548 5532 5512 5521 5540 5566 5555 5549 5538 5521 5524 5532 5548 5537 5554 5602 5599 5597 5597 5593 5607 5606 5605
5570 5591 5625 5616 5582 5588 5601 5604 5600 5605 5605 5602 5593 5592 5587 5576 5562 5576 5572 5578 5570 5558 5543 5523 5519 5505 5529 5543 5540 5538 5540 5534 5517 5525 5532 5529 5545 5592 5587 5582 5590 5590 5594 5595 5589
5563 5579 5595 5599 5593 5579 5581 5584 5586 5598 5596 5598 5590 5584 5577 5574 5570 5561 5565 5572 5566 5556 5545 5537 5523 5514 5500 5521 5526 5532 5542 5546 5533 5525 5539 5547 5557 5574 5581 5581 5581 5583 5587 5576 5577
5557 5568 5569 5566 5569 5566 5573 5580 5580 5582 5587 5582 5574 5570 5566 5555 5558 5555 5557 5557 5560 5550 5545 5531 5520 5524 5526 5535 5542 5546 5553 5550 5546 5545 5540 5558 5561 5571 5553 5558 5563 5570 5568 5569 5574
5540 5541 5542 5547 5559 5559 5565 5571 5573 5577 5568 5565 5561 5566 5561 5550 5551 5546 5544 5538 5541 5540 5535 5534 5517 5521 5525 5538 5542 5537 5551 5561 5553 5554 5546 5550 5556 5559 5553 5552 5555 5556 5561 5560 5563
5523 5526 5527 5539 5546 5546 5551 5554 5561 5566 5567 5565 5560 5554 5552 5553 5553 5549 5545 5539 5537 5532 5526 5526 5517 5509 5514 5533 5534 5534 5535 5541 5539 5536 5531 5533 5535 5539 5545 5545 5541 5545 5550 5553 5553